User: anonymous   Login
Location: Montr�al
(45.5000°N, 73.5830°W)
Time: 10:00:30
(UTC-05:00)
Language:

Cosmos 2369 - Orbit

View from above orbital plane
View from above orbital plane
View from above satellite
View from above satellite

Ground track
Ground track

The orbit data is extracted from the following two-line orbital elements,

1 26069U 00006A   14329.48476318  .00000010  00000-0  30760-4 0  4052
2 26069 070.9965 157.0292 0011765 219.7414 178.2835 14.13270962764067
Epoch (UTC): 25 November 2014 11:38:03
Eccentricity: 0.0011765
inclination: 70.9965°
perigee height: 840 km
apogee height: 857 km
right ascension of ascending node: 157.0292°
argument of perigee: 219.7414°
revolutions per day: 14.13270962
mean anomaly at epoch: 178.2835°
orbit number at epoch: 76406

The dashed part of the orbit path shows where the satellite is in the earth's shadow,  

DLR